QPF
0.00 0.00 0.00 0.00 0.00 0.00 0.01 0.01 0.01 0.00 0.00 0.00 0.00 0.01 0.01 0.02 0.02 0.02 0.02 0.03 0.04 0.05 0.04 0.04 0.06 0.09 0.10 0.09 0.10 0.10 0.11 0.11 0.11 0.11 0.09 0.07 0.06 0.03
0.00 0.00 0.00 0.00 0.00 0.00 0.00 0.01 0.01 0.01 0.00 0.00 0.00 0.01 0.02 0.02 0.02 0.02 0.02 0.02 0.03 0.03 0.03 0.04 0.04 0.05 0.07 0.08 0.09 0.09 0.09 0.08 0.09 0.08 0.08 0.08 0.06 0.04
0.00 0.00 0.00 0.01 0.01 0.00 0.00 0.00 0.01 0.01 0.01 0.00 0.00 0.01 0.01 0.01 0.01 0.02 0.02 0.02 0.02 0.02 0.02 0.02 0.03 0.04 0.04 0.07 0.07 0.07 0.07 0.08 0.08 0.08 0.07 0.06 0.06 0.05
0.00 0.01 0.00 0.01 0.00 0.01 0.00 0.00 0.00 0.01 0.01 0.00 0.00 0.00 0.01 0.01 0.01 0.01 0.02 0.02 0.02 0.02 0.02 0.02 0.02 0.03 0.04 0.05 0.07 0.07 0.07 0.07 0.07 0.08 0.06 0.06 0.05 0.05
0.00 0.00 0.00 0.00 0.00 0.01 0.01 0.01 0.00 0.01 0.01 0.01 0.00 0.00 0.01 0.01 0.01 0.01 0.02 0.02 0.02 0.02 0.02 0.02 0.02 0.03 0.03 0.04 0.06 0.07 0.07 0.07 0.07 0.07 0.06 0.05 0.05 0.05
0.00 0.00 0.00 0.00 0.00 0.01 0.01 0.01 0.01 0.01 0.01 0.01 0.00 0.01 0.01 0.01 0.01 0.01 0.01 0.01 0.01 0.01 0.03 0.03 0.02 0.03 0.03 0.03 0.05 0.07 0.08 0.07 0.06 0.06 0.07 0.06 0.06 0.06
0.00 0.00 0.00 0.00 0.00 0.00 0.00 0.01 0.01 0.01 0.00 0.00 0.00 0.01 0.01 0.01 0.01 0.01 0.01 0.01 0.01 0.01 0.02 0.02 0.02 0.02 0.02 0.03 0.04 0.05 0.06 0.08 0.08 0.07 0.07 0.08 0.06 0.05
0.00 0.00 0.00 0.00 0.00 0.00 0.00 0.01 0.01 0.01 0.00 0.00 0.00 0.00 0.00 0.01 0.01 0.02 0.02 0.01 0.01 0.01 0.03 0.03 0.03 0.03 0.03 0.03 0.04 0.05 0.05 0.06 0.07 0.07 0.07 0.08 0.07 0.06
0.00 0.00 0.00 0.00 0.00 0.00 0.00 0.00 0.01 0.01 0.00 0.00 0.00 0.00 0.00 0.00 0.01 0.02 0.02 0.02 0.02 0.02 0.04 0.04 0.05 0.05 0.04 0.05 0.06 0.06 0.06 0.05 0.06 0.07 0.07 0.07 0.07 0.06
0.00 0.00 0.00 0.00 0.00 0.01 0.01 0.00 0.01 0.00 0.01 0.01 0.00 0.00 0.00 0.00 0.01 0.01 0.03 0.03 0.02 0.02 0.04 0.06 0.06 0.06 0.06 0.05 0.06 0.07 0.08 0.07 0.06 0.06 0.06 0.06 0.06 0.06
0.00 0.00 0.00 0.00 0.00 0.00 0.00 0.00 0.00 0.00 0.01 0.01 0.00 0.00 0.00 0.00 0.00 0.01 0.02 0.02 0.01 0.01 0.04 0.08 0.08 0.07 0.08 0.07 0.06 0.07 0.09 0.09 0.09 0.09 0.08 0.07 0.07 0.08
0.00 0.00 0.00 0.00 0.00 0.00 0.00 0.00 0.00 0.01 0.01 0.02 0.01 0.01 0.01 0.00 0.01 0.01 0.02 0.02 0.02 0.02 0.03 0.06 0.09 0.11 0.10 0.09 0.07 0.06 0.06 0.09 0.12 0.14 0.13 0.10 0.09 0.08
0.00 0.00 0.00 0.00 0.00 0.00 0.00 0.00 0.00 0.00 0.00 0.01 0.01 0.01 0.01 0.01 0.01 0.01 0.01 0.02 0.02 0.02 0.04 0.07 0.08 0.12 0.12 0.11 0.09 0.06 0.05 0.06 0.08 0.13 0.16 0.14 0.11 0.08
0.00 0.00 0.00 0.00 0.00 0.00 0.00 0.00 0.00 0.00 0.00 0.00 0.00 0.00 0.01 0.01 0.01 0.02 0.02 0.02 0.02 0.02 0.04 0.07 0.09 0.11 0.11 0.11 0.11 0.09 0.07 0.07 0.07 0.08 0.12 0.15 0.14 0.11
0.00 0.00 0.00 0.00 0.00 0.00 0.00 0.00 0.00 0.00 0.00 0.00 0.00 0.00 0.01 0.01 0.03 0.04 0.04 0.04 0.04 0.03 0.03 0.04 0.06 0.12 0.14 0.11 0.11 0.11 0.10 0.09 0.07 0.08 0.09 0.10 0.11 0.11
0.00 0.00 0.00 0.00 0.00 0.00 0.00 0.00 0.00 0.00 0.00 0.00 0.00 0.00 0.01 0.01 0.02 0.04 0.05 0.05 0.04 0.03 0.04 0.04 0.05 0.09 0.14 0.14 0.11 0.11 0.11 0.10 0.08 0.07 0.08 0.08 0.08 0.09
0.00 0.00 0.00 0.00 0.00 0.00 0.01 0.01 0.01 0.01 0.01 0.01 0.01 0.01 0.00 0.01 0.02 0.04 0.05 0.06 0.05 0.03 0.04 0.04 0.05 0.08 0.12 0.14 0.13 0.12 0.11 0.10 0.10 0.08 0.07 0.07 0.07 0.07
0.00 0.00 0.00 0.00 0.00 0.01 0.01 0.01 0.01 0.01 0.01 0.02 0.01 0.01 0.01 0.01 0.02 0.03 0.05 0.06 0.06 0.05 0.05 0.05 0.06 0.09 0.13 0.14 0.12 0.12 0.12 0.11 0.12 0.11 0.09 0.08 0.08 0.06
0.00 0.00 0.00 0.00 0.01 0.01 0.01 0.01 0.01 0.01 0.01 0.01 0.01 0.01 0.01 0.02 0.02 0.03 0.04 0.05 0.06 0.06 0.07 0.08 0.07 0.07 0.10 0.11 0.11 0.10 0.13 0.12 0.13 0.13 0.13 0.10 0.07 0.06
0.00 0.00 0.01 0.01 0.01 0.01 0.01 0.01 0.01 0.02 0.02 0.01 0.01 0.01 0.01 0.02 0.02 0.03 0.03 0.05 0.06 0.06 0.07 0.08 0.07 0.05 0.06 0.09 0.10 0.08 0.09 0.14 0.14 0.14 0.13 0.12 0.11 0.08
0.01 0.01 0.01 0.01 0.01 0.01 0.01 0.02 0.02 0.02 0.02 0.03 0.02 0.01 0.01 0.01 0.02 0.02 0.03 0.05 0.06 0.06 0.05 0.05 0.05 0.07 0.09 0.10 0.12 0.12 0.09 0.11 0.18 0.15 0.12 0.12 0.12 0.10
0.01 0.01 0.01 0.01 0.01 0.01 0.01 0.02 0.02 0.02 0.02 0.03 0.02 0.02 0.01 0.01 0.02 0.03 0.04 0.05 0.04 0.05 0.05 0.06 0.08 0.10 0.10 0.08 0.08 0.11 0.13 0.12 0.17 0.22 0.17 0.13 0.10 0.09
0.02 0.02 0.02 0.01 0.01 0.01 0.02 0.02 0.02 0.03 0.02 0.02 0.02 0.03 0.02 0.02 0.03 0.04 0.05 0.06 0.05 0.05 0.06 0.08 0.09 0.10 0.09 0.09 0.08 0.10 0.13 0.14 0.15 0.16 0.14 0.13 0.13 0.11
MSLP
1016.39 1016.53 1016.71 1016.90 1017.05 1017.12 1017.08 1016.93 1016.67 1016.34 1015.96 1015.58 1015.22 1014.91 1014.65 1014.46 1014.32 1014.23 1014.17 1014.14 1014.13 1014.15 1014.18 1014.22 1014.28 1014.35 1014.43 1014.54 1014.67 1014.85 1015.10 1015.43 1015.84 1016.34 1016.93 1017.56 1018.22 1018.86
1015.95 1016.04 1016.17 1016.32 1016.45 1016.52 1016.51 1016.41 1016.22 1015.98 1015.69 1015.39 1015.10 1014.84 1014.60 1014.41 1014.25 1014.12 1014.01 1013.93 1013.87 1013.83 1013.81 1013.81 1013.82 1013.84 1013.86 1013.91 1013.98 1014.10 1014.29 1014.56 1014.94 1015.41 1015.97 1016.60 1017.27 1017.95
1015.51 1015.55 1015.63 1015.73 1015.82 1015.87 1015.87 1015.81 1015.69 1015.52 1015.32 1015.11 1014.90 1014.70 1014.51 1014.33 1014.16 1014.00 1013.86 1013.73 1013.62 1013.52 1013.45 1013.39 1013.35 1013.33 1013.31 1013.31 1013.34 1013.42 1013.56 1013.80 1014.13 1014.58 1015.12 1015.74 1016.41 1017.09
1015.11 1015.10 1015.13 1015.17 1015.22 1015.24 1015.24 1015.19 1015.12 1015.01 1014.90 1014.77 1014.63 1014.49 1014.35 1014.19 1014.03 1013.86 1013.68 1013.51 1013.35 1013.20 1013.08 1012.97 1012.89 1012.82 1012.77 1012.75 1012.75 1012.81 1012.93 1013.14 1013.45 1013.87 1014.39 1014.99 1015.64 1016.32
1014.75 1014.71 1014.69 1014.68 1014.68 1014.67 1014.64 1014.60 1014.55 1014.49 1014.43 1014.37 1014.30 1014.22 1014.12 1013.99 1013.84 1013.67 1013.47 1013.27 1013.06 1012.87 1012.70 1012.56 1012.44 1012.35 1012.28 1012.24 1012.24 1012.28 1012.40 1012.60 1012.89 1013.29 1013.78 1014.35 1014.98 1015.64
1014.42 1014.36 1014.30 1014.25 1014.20 1014.15 1014.10 1014.05 1014.00 1013.97 1013.94 1013.92 1013.90 1013.86 1013.81 1013.71 1013.58 1013.41 1013.21 1012.98 1012.76 1012.54 1012.34 1012.16 1012.02 1011.91 1011.84 1011.80 1011.80 1011.86 1011.98 1012.17 1012.46 1012.83 1013.28 1013.82 1014.40 1015.02
1014.09 1014.01 1013.93 1013.85 1013.77 1013.68 1013.60 1013.53 1013.47 1013.44 1013.43 1013.43 1013.43 1013.43 1013.41 1013.34 1013.24 1013.09 1012.89 1012.67 1012.44 1012.21 1011.99 1011.81 1011.66 1011.55 1011.48 1011.45 1011.47 1011.53 1011.66 1011.85 1012.12 1012.46 1012.88 1013.35 1013.88 1014.44
1013.71 1013.62 1013.53 1013.44 1013.33 1013.22 1013.12 1013.02 1012.95 1012.91 1012.89 1012.90 1012.92 1012.94 1012.94 1012.91 1012.83 1012.71 1012.54 1012.34 1012.12 1011.90 1011.70 1011.52 1011.37 1011.27 1011.21 1011.20 1011.23 1011.31 1011.44 1011.63 1011.87 1012.17 1012.53 1012.94 1013.39 1013.86
1013.23 1013.15 1013.07 1012.97 1012.87 1012.75 1012.63 1012.52 1012.43 1012.37 1012.35 1012.35 1012.38 1012.41 1012.43 1012.43 1012.39 1012.31 1012.18 1012.01 1011.83 1011.63 1011.45 1011.29 1011.16 1011.07 1011.03 1011.03 1011.08 1011.17 1011.30 1011.47 1011.68 1011.93 1012.22 1012.55 1012.90 1013.29
1012.65 1012.59 1012.52 1012.44 1012.35 1012.24 1012.13 1012.02 1011.92 1011.86 1011.82 1011.82 1011.84 1011.89 1011.93 1011.95 1011.95 1011.90 1011.82 1011.70 1011.55 1011.40 1011.24 1011.11 1011.01 1010.94 1010.92 1010.93 1010.99 1011.08 1011.20 1011.35 1011.53 1011.72 1011.93 1012.17 1012.43 1012.72
1011.98 1011.94 1011.91 1011.86 1011.80 1011.72 1011.63 1011.53 1011.44 1011.37 1011.33 1011.33 1011.35 1011.39 1011.45 1011.49 1011.52 1011.51 1011.47 1011.39 1011.29 1011.17 1011.05 1010.94 1010.86 1010.82 1010.81 1010.84 1010.91 1011.00 1011.12 1011.24 1011.38 1011.52 1011.66 1011.81 1011.98 1012.17
1011.28 1011.28 1011.28 1011.27 1011.25 1011.21 1011.15 1011.07 1011.00 1010.93 1010.89 1010.88 1010.90 1010.95 1011.01 1011.06 1011.11 1011.13 1011.12 1011.07 1011.00 1010.91 1010.82 1010.74 1010.68 1010.65 1010.66 1010.71 1010.79 1010.89 1010.99 1011.11 1011.21 1011.31 1011.39 1011.47 1011.56 1011.67
1010.63 1010.65 1010.69 1010.73 1010.74 1010.74 1010.70 1010.65 1010.59 1010.53 1010.49 1010.48 1010.49 1010.53 1010.58 1010.64 1010.69 1010.72 1010.72 1010.70 1010.64 1010.57 1010.50 1010.44 1010.40 1010.39 1010.42 1010.49 1010.58 1010.69 1010.81 1010.92 1011.01 1011.08 1011.13 1011.16 1011.20 1011.25
1010.07 1010.12 1010.19 1010.25 1010.29 1010.31 1010.29 1010.25 1010.20 1010.14 1010.10 1010.07 1010.07 1010.10 1010.14 1010.19 1010.23 1010.25 1010.26 1010.23 1010.18 1010.12 1010.06 1010.01 1009.99 1010.00 1010.05 1010.14 1010.26 1010.40 1010.54 1010.66 1010.76 1010.84 1010.88 1010.89 1010.90 1010.92
1009.65 1009.72 1009.80 1009.86 1009.91 1009.92 1009.90 1009.85 1009.78 1009.71 1009.65 1009.61 1009.59 1009.60 1009.62 1009.65 1009.68 1009.69 1009.68 1009.65 1009.60 1009.54 1009.48 1009.45 1009.44 1009.48 1009.56 1009.68 1009.84 1010.01 1010.19 1010.35 1010.48 1010.57 1010.63 1010.65 1010.66 1010.67
1009.36 1009.43 1009.49 1009.53 1009.54 1009.52 1009.46 1009.37 1009.27 1009.17 1009.09 1009.02 1008.99 1008.97 1008.98 1008.99 1009.01 1009.00 1008.99 1008.95 1008.89 1008.84 1008.79 1008.77 1008.79 1008.86 1008.97 1009.14 1009.34 1009.56 1009.79 1009.99 1010.17 1010.30 1010.39 1010.45 1010.48 1010.51
1009.14 1009.19 1009.21 1009.20 1009.14 1009.05 1008.92 1008.78 1008.63 1008.49 1008.37 1008.28 1008.22 1008.20 1008.19 1008.20 1008.21 1008.20 1008.18 1008.15 1008.10 1008.06 1008.03 1008.04 1008.09 1008.19 1008.35 1008.56 1008.81 1009.09 1009.37 1009.63 1009.85 1010.04 1010.17 1010.27 1010.33 1010.39
1008.91 1008.92 1008.88 1008.79 1008.65 1008.46 1008.25 1008.03 1007.81 1007.62 1007.47 1007.36 1007.29 1007.27 1007.27 1007.29 1007.30 1007.31 1007.31 1007.29 1007.27 1007.25 1007.26 1007.30 1007.39 1007.53 1007.74 1008.00 1008.31 1008.63 1008.96 1009.27 1009.55 1009.78 1009.97 1010.10 1010.21 1010.31
1008.59 1008.55 1008.44 1008.25 1008.01 1007.73 1007.42 1007.12 1006.84 1006.60 1006.42 1006.30 1006.24 1006.23 1006.25 1006.30 1006.35 1006.39 1006.42 1006.44 1006.45 1006.47 1006.52 1006.60 1006.74 1006.93 1007.19 1007.50 1007.85 1008.22 1008.59 1008.95 1009.27 1009.54 1009.77 1009.95 1010.10 1010.24
1008.13 1008.03 1007.84 1007.57 1007.23 1006.85 1006.46 1006.09 1005.76 1005.49 1005.29 1005.17 1005.13 1005.15 1005.21 1005.29 1005.38 1005.47 1005.55 1005.61 1005.68 1005.75 1005.84 1005.98 1006.16 1006.40 1006.70 1007.05 1007.44 1007.85 1008.25 1008.64 1009.00 1009.31 1009.57 1009.79 1009.99 1010.17
1007.49 1007.34 1007.09 1006.75 1006.33 1005.88 1005.43 1005.01 1004.65 1004.36 1004.16 1004.06 1004.04 1004.09 1004.19 1004.32 1004.46 1004.60 1004.73 1004.85 1004.96 1005.08 1005.23 1005.41 1005.64 1005.92 1006.26 1006.64 1007.06 1007.50 1007.93 1008.34 1008.72 1009.06 1009.36 1009.62 1009.86 1010.08
1006.70 1006.52 1006.23 1005.84 1005.39 1004.90 1004.42 1003.97 1003.60 1003.31 1003.12 1003.04 1003.05 1003.13 1003.27 1003.44 1003.62 1003.80 1003.97 1004.14 1004.29 1004.46 1004.65 1004.88 1005.14 1005.46 1005.83 1006.24 1006.68 1007.14 1007.59 1008.02 1008.43 1008.80 1009.13 1009.43 1009.71 1009.98
1005.83 1005.64 1005.34 1004.94 1004.48 1003.98 1003.50 1003.05 1002.69 1002.41 1002.25 1002.18 1002.21 1002.31 1002.47 1002.67 1002.87 1003.08 1003.27 1003.47 1003.66 1003.86 1004.08 1004.34 1004.64 1004.98 1005.38 1005.81 1006.27 1006.74 1007.21 1007.67 1008.10 1008.50 1008.87 1009.21 1009.53 1009.85
Thickness
5648 5646 5644 5643 5642 5641 5640 5639 5636 5636 5640 5648 5654 5662 5666 5669 5673 5677 5681 5684 5687 5690 5693 5696 5699 5702 5704 5706 5707 5708 5708 5709 5709 5709 5710 5710 5710 5710
5641 5638 5636 5635 5634 5633 5632 5631 5630 5630 5631 5637 5642 5649 5655 5660 5664 5667 5671 5675 5679 5682 5685 5688 5692 5695 5698 5701 5703 5704 5706 5706 5707 5707 5708 5709 5709 5710
5634 5632 5629 5627 5625 5624 5624 5623 5622 5622 5623 5628 5632 5638 5643 5648 5653 5658 5662 5665 5669 5673 5676 5680 5684 5688 5692 5695 5698 5700 5702 5703 5704 5705 5706 5707 5708 5709
5628 5624 5622 5620 5618 5617 5615 5614 5614 5614 5615 5618 5621 5626 5631 5637 5642 5647 5652 5656 5660 5664 5669 5673 5677 5681 5685 5689 5692 5695 5697 5699 5701 5702 5704 5705 5706 5708
5622 5618 5615 5613 5610 5609 5608 5607 5607 5608 5608 5609 5612 5615 5620 5625 5630 5635 5641 5645 5650 5655 5660 5664 5669 5674 5678 5682 5686 5689 5692 5695 5697 5699 5701 5702 5704 5706
5616 5613 5610 5607 5604 5602 5601 5600 5600 5599 5599 5600 5602 5604 5608 5613 5617 5622 5627 5633 5638 5645 5651 5656 5661 5666 5671 5676 5680 5683 5687 5690 5692 5694 5697 5699 5701 5703
5611 5607 5604 5602 5600 5597 5596 5594 5593 5591 5591 5591 5593 5595 5598 5601 5605 5611 5615 5621 5628 5634 5639 5646 5651 5657 5662 5668 5672 5677 5681 5684 5687 5689 5692 5694 5697 5699
5605 5602 5599 5596 5595 5593 5592 5590 5588 5586 5584 5584 5585 5586 5590 5592 5596 5601 5605 5609 5615 5624 5627 5634 5641 5647 5653 5659 5666 5670 5675 5678 5682 5685 5687 5690 5692 5694
5600 5596 5594 5593 5590 5587 5585 5585 5584 5583 5582 5580 5579 5581 5583 5586 5588 5592 5595 5599 5605 5612 5616 5624 5631 5637 5644 5651 5657 5663 5667 5672 5675 5679 5682 5685 5687 5689
5596 5592 5588 5586 5584 5581 5579 5578 5576 5576 5576 5576 5576 5578 5579 5580 5581 5584 5587 5592 5598 5603 5608 5613 5620 5627 5634 5641 5648 5654 5660 5665 5669 5673 5676 5679 5681 5684
5593 5589 5584 5581 5580 5577 5573 5570 5569 5569 5570 5571 5572 5572 5573 5574 5575 5575 5578 5581 5587 5593 5598 5604 5611 5617 5624 5631 5639 5645 5651 5656 5661 5666 5670 5673 5675 5677
5589 5585 5582 5578 5575 5572 5567 5564 5562 5562 5562 5563 5564 5565 5566 5567 5569 5570 5572 5573 5578 5584 5592 5596 5602 5606 5613 5621 5629 5635 5641 5647 5652 5658 5662 5666 5668 5670
5584 5580 5577 5574 5571 5567 5563 5559 5558 5557 5555 5554 5554 5556 5558 5559 5562 5564 5567 5569 5573 5578 5585 5589 5593 5598 5604 5611 5618 5626 5632 5638 5643 5649 5653 5657 5661 5665
5581 5578 5574 5570 5566 5562 5559 5556 5554 5550 5548 5546 5547 5548 5550 5552 5555 5558 5562 5565 5571 5576 5580 5583 5587 5592 5597 5603 5610 5617 5623 5630 5635 5641 5645 5648 5652 5657
5579 5575 5571 5566 5562 5558 5556 5553 5549 5545 5543 5541 5542 5544 5546 5548 5550 5552 5556 5560 5564 5570 5575 5579 5583 5587 5592 5598 5604 5609 5615 5622 5627 5633 5637 5641 5646 5650
5575 5570 5566 5562 5558 5555 5553 5550 5547 5544 5541 5540 5540 5541 5541 5541 5543 5546 5548 5552 5557 5563 5569 5574 5578 5582 5587 5593 5598 5604 5610 5615 5621 5626 5630 5634 5638 5643
5568 5562 5558 5555 5553 5552 5550 5548 5545 5541 5538 5537 5536 5536 5536 5536 5539 5541 5543 5547 5551 5557 5562 5567 5572 5577 5583 5588 5593 5599 5604 5610 5615 5619 5623 5627 5631 5636
5560 5556 5554 5552 5550 5549 5547 5545 5543 5541 5539 5537 5535 5534 5533 5534 5535 5537 5540 5543 5547 5553 5557 5562 5566 5570 5575 5582 5590 5595 5600 5605 5609 5614 5618 5621 5625 5629
5554 5553 5552 5551 5550 5548 5545 5543 5542 5541 5539 5537 5535 5534 5533 5533 5533 5535 5537 5540 5544 5549 5553 5558 5562 5567 5572 5579 5586 5591 5596 5599 5604 5608 5612 5617 5621 5623
5553 5552 5552 5551 5549 5547 5545 5543 5541 5540 5538 5537 5535 5534 5533 5532 5533 5534 5535 5538 5541 5545 5550 5554 5560 5566 5571 5576 5580 5585 5590 5595 5600 5603 5606 5609 5611 5614
5556 5554 5553 5551 5549 5547 5545 5543 5541 5539 5538 5536 5535 5535 5534 5533 5533 5534 5535 5537 5539 5543 5548 5553 5559 5563 5567 5570 5574 5580 5584 5589 5596 5600 5601 5602 5604 5607
5557 5556 5554 5552 5550 5548 5545 5543 5541 5539 5538 5537 5536 5535 5534 5534 5534 5535 5536 5537 5539 5543 5547 5551 5555 5558 5562 5567 5573 5576 5579 5581 5585 5591 5594 5600 5604 5606
5558 5556 5554 5552 5549 5547 5545 5543 5541 5539 5538 5537 5536 5535 5535 5534 5535 5536 5537 5538 5540 5543 5546 5548 5552 5556 5561 5565 5569 5572 5574 5576 5579 5582 5583 5590 5597 5602